Overview Statistics Trail Chart Weather Telemetry Raw packets
 

This is the latest recevied weather packets stored in our database for station/object KB4MOX. If no packets are shown the sender has not sent any weather packets the latest 10 day(s).

<< 24 25 26 27 28 29 30 >>
Time Temp. Humidity Pressure Rain* Wind** Luminosity Snow
1788453624 34.44° C 50% 1018.2 hPa 0 mm - 773 W/m² -
1788453319 35° C 49% 1018.2 hPa 0 mm - 721 W/m² -
1788453015 35° C 50% 1018.3 hPa 0 mm - 714 W/m² -
1788452711 34.44° C 50% 1018.4 hPa 0 mm - 737 W/m² -
1788452407 33.33° C 53% 1018.6 hPa 0 mm - 778 W/m² -
1788452102 33.33° C 53% 1018.6 hPa 0 mm - 668 W/m² -
1788451803 33.33° C 54% 1018.5 hPa 0 mm - 662 W/m² -
1788451496 32.78° C 54% 1018.6 hPa 0 mm - 660 W/m² -
1788451191 33.89° C 52% 1018.7 hPa 0 mm - 645 W/m² -
1788450890 33.33° C 53% 1018.9 hPa 0 mm - 614 W/m² -
1788450587 32.78° C 54% 1018.7 hPa 0 mm - 371 W/m² -
1788450282 32.78° C 53% 1018.7 hPa 0 mm - 285 W/m² -
1788449978 32.78° C 53% 1018.8 hPa 0 mm - 397 W/m² -
1788449674 32.78° C 54% 1018.8 hPa 0 mm - 594 W/m² -
1788449369 32.22° C 53% 1018.9 hPa 0 mm - 564 W/m² -
1788449065 32.22° C 53% 1018.8 hPa 0 mm - 334 W/m² -
1788448761 31.67° C 54% 1018.7 hPa 0 mm - 172 W/m² -
1788448455 31.67° C 53% 1018.9 hPa 0 mm - 155 W/m² -
1788448150 31.67° C 53% 1018.9 hPa 0 mm - 176 W/m² -
1788447845 31.67° C 53% 1018.8 hPa 0 mm - 207 W/m² -
1788447540 32.22° C 53% 1018.7 hPa 0 mm - 205 W/m² -
1788447235 31.67° C 54% 1018.6 hPa 0 mm - 292 W/m² -
1788446934 31.67° C 53% 1018.8 hPa 0 mm - 124 W/m² -
1788446630 31.11° C 56% 1018.8 hPa 0 mm - 102 W/m² -
1788446324 30.56° C 56% 1018.8 hPa 0 mm - 88 W/m² -

* Rain latest hour (hover to see other rain measurements)
** Current wind speed in m/s (hover to see current wind gust speed)